When you browse on this site, cookies collect data to enhance your experience and personalize the content and advertising you see.
Visit our Privacy Policy to learn more. By continuing to use the site, you agree to this use of cookies and data.
  • In Hungary
  • List of Countries
  • For 7 days
  • Water Temperature
  • Satellite Maps
  • Weather Map
  • News
  • Weather Widgets
  • user-avatar
    Login

    Hourly Weather Santa Bárbara

    Today, 17 July, Wednesday

    Time Temperature Precipitation Wind Pressure Humidity
    00:00 +21°C° 0 mm 0 mps 722 mmHg 98%
    01:00 +21°C° 0 mm 0 mps 722 mmHg 98%
    02:00 +21°C° 0 mm 0 mps 721 mmHg 98%
    03:00 +20°C° 0 mm 0 mps 721 mmHg 98%
    04:00 +21°C° 0 mm 0 mps 721 mmHg 98%
    05:00 +21°C° 0 mm 0 mps 721 mmHg 98%
    06:00 +21°C° 0 mm 0 mps 722 mmHg 98%
    07:00 +23°C° 0 mm 0 mps 722 mmHg 91%
    08:00 +25°C° 0 mm 0 mps 723 mmHg 84%
    09:00 +26°C° 0 mm 0 mps 723 mmHg 78%
    10:00 +28°C° 0.1 mm 0 mps 723 mmHg 70%
    11:00 +31°C° 0.1 mm 1 mps 723 mmHg 63%
    12:00 +33°C° 0.1 mm 1 mps 722 mmHg 55%
    13:00 +32°C° 0.5 mm 1 mps 722 mmHg 61%
    14:00 +31°C° 0.5 mm 1 mps 721 mmHg 66%
    15:00 +31°C° 0.5 mm 2 mps 721 mmHg 71%
    16:00 +29°C° 1.4 mm 1 mps 721 mmHg 80%
    17:00 +27°C° 1.4 mm 1 mps 721 mmHg 88%
    18:00 +24°C° 1.4 mm 0 mps 721 mmHg 96%
    19:00 +23°C° 2 mm 0 mps 721 mmHg 97%
    20:00 +23°C° 2 mm 0 mps 722 mmHg 97%
    21:00 +22°C° 2 mm 0 mps 722 mmHg 98%
    22:00 +22°C° 0 mm 0 mps 722 mmHg 98%
    23:00 +22°C° 0 mm 0 mps 722 mmHg 98%

    Tomorrow, 18 July, Thursday

    Time Temperature Precipitation Wind Pressure Humidity
    00:00 +21°C° 0 mm 0 mps 722 mmHg 98%
    01:00 +21°C° 0 mm 0 mps 721 mmHg 98%
    02:00 +21°C° 0 mm 0 mps 721 mmHg 98%
    03:00 +21°C° 0 mm 0 mps 720 mmHg 97%
    04:00 +20°C° 0 mm 0 mps 721 mmHg 97%
    05:00 +20°C° 0 mm 0 mps 721 mmHg 97%
    06:00 +20°C° 0 mm 0 mps 721 mmHg 97%
    07:00 +23°C° 0 mm 0 mps 722 mmHg 86%
    08:00 +25°C° 0 mm 0 mps 722 mmHg 76%
    09:00 +29°C° 0 mm 1 mps 723 mmHg 66%
    10:00 +31°C° 0 mm 1 mps 722 mmHg 58%
    11:00 +32°C° 0 mm 1 mps 722 mmHg 50%
    12:00 +35°C° 0 mm 2 mps 722 mmHg 41%
    13:00 +35°C° 0 mm 2 mps 722 mmHg 42%
    14:00 +35°C° 0 mm 2 mps 721 mmHg 42%
    15:00 +35°C° 0 mm 2 mps 721 mmHg 42%
    16:00 +31°C° 0.4 mm 2 mps 721 mmHg 58%
    17:00 +29°C° 0.4 mm 1 mps 720 mmHg 74%
    18:00 +26°C° 0.4 mm 1 mps 720 mmHg 89%
    19:00 +25°C° 0.3 mm 1 mps 721 mmHg 92%
    20:00 +22°C° 0.3 mm 0 mps 721 mmHg 95%
    21:00 +21°C° 0.3 mm 0 mps 722 mmHg 97%
    22:00 +21°C° 0 mm 0 mps 722 mmHg 98%
    23:00 +21°C° 0 mm 0 mps 721 mmHg 98%

    Day after tomorrow, 19 July, Friday

    Time Temperature Precipitation Wind Pressure Humidity
    00:00 +21°C° 0 mm 0 mps 721 mmHg 98%
    01:00 +20°C° 0 mm 0 mps 721 mmHg 98%
    02:00 +20°C° 0 mm 0 mps 721 mmHg 98%
    03:00 +20°C° 0 mm 0 mps 720 mmHg 98%
    04:00 +20°C° 0 mm 0 mps 721 mmHg 98%
    05:00 +20°C° 0 mm 0 mps 721 mmHg 98%
    06:00 +20°C° 0 mm 0 mps 721 mmHg 98%
    07:00 +22°C° 0 mm 0 mps 722 mmHg 89%
    08:00 +24°C° 0 mm 0 mps 722 mmHg 81%
    09:00 +26°C° 0 mm 0 mps 723 mmHg 73%
    10:00 +30°C° 0 mm 1 mps 722 mmHg 64%
    11:00 +32°C° 0 mm 1 mps 722 mmHg 54%
    12:00 +33°C° 0 mm 1 mps 722 mmHg 45%
    13:00 +33°C° 0 mm 1 mps 722 mmHg 45%
    14:00 +34°C° 0 mm 2 mps 721 mmHg 45%
    15:00 +34°C° 0 mm 2 mps 720 mmHg 45%
    16:00 +31°C° 0.1 mm 2 mps 720 mmHg 57%
    17:00 +29°C° 0.1 mm 2 mps 720 mmHg 69%
    18:00 +27°C° 0.1 mm 1 mps 720 mmHg 81%
    19:00 +26°C° 0.1 mm 1 mps 721 mmHg 87%
    20:00 +25°C° 0.1 mm 1 mps 721 mmHg 93%
    21:00 +22°C° 0.1 mm 0 mps 722 mmHg 98%
    22:00 +22°C° 0 mm 0 mps 722 mmHg 98%
    23:00 +21°C° 0 mm 0 mps 721 mmHg 98%

    20 July, Saturday

    Time Temperature Precipitation Wind Pressure Humidity
    00:00 +21°C° 0 mm 0 mps 721 mmHg 98%
    01:00 +21°C° 0 mm 0 mps 721 mmHg 98%
    02:00 +21°C° 0 mm 0 mps 720 mmHg 98%
    03:00 +21°C° 0 mm 0 mps 720 mmHg 98%
    04:00 +21°C° 0 mm 0 mps 720 mmHg 98%
    05:00 +21°C° 0 mm 0 mps 720 mmHg 98%
    06:00 +21°C° 0 mm 0 mps 721 mmHg 97%
    07:00 +23°C° 0 mm 0 mps 721 mmHg 89%
    08:00 +25°C° 0 mm 0 mps 721 mmHg 80%
    09:00 +29°C° 0 mm 1 mps 722 mmHg 71%
    10:00 +30°C° 0 mm 1 mps 721 mmHg 67%
    11:00 +31°C° 0 mm 1 mps 721 mmHg 63%
    12:00 +32°C° 0 mm 1 mps 721 mmHg 58%
    13:00 +32°C° 1.2 mm 1 mps 720 mmHg 66%
    14:00 +31°C° 1.2 mm 1 mps 720 mmHg 74%
    15:00 +30°C° 1.2 mm 1 mps 719 mmHg 82%
    16:00 +29°C° 3.5 mm 1 mps 719 mmHg 87%
    17:00 +27°C° 3.5 mm 1 mps 719 mmHg 91%
    18:00 +25°C° 3.5 mm 1 mps 720 mmHg 96%
    19:00 +25°C° 3.4 mm 1 mps 720 mmHg 97%
    20:00 +25°C° 3.4 mm 1 mps 721 mmHg 98%
    21:00 +24°C° 3.4 mm 1 mps 721 mmHg 98%
    22:00 +24°C° 0.6 mm 1 mps 721 mmHg 98%
    23:00 +22°C° 0.6 mm 0 mps 721 mmHg 98%

    21 July, Sunday

    Time Temperature Precipitation Wind Pressure Humidity
    00:00 +21°C° 0.6 mm 0 mps 721 mmHg 97%
    01:00 +21°C° 0 mm 0 mps 720 mmHg 97%
    02:00 +21°C° 0 mm 0 mps 720 mmHg 97%
    03:00 +21°C° 0 mm 0 mps 720 mmHg 96%
    04:00 +20°C° 0 mm 0 mps 720 mmHg 96%
    05:00 +20°C° 0 mm 0 mps 720 mmHg 96%
    06:00 +20°C° 0 mm 0 mps 720 mmHg 96%
    07:00 +23°C° 0 mm 0 mps 721 mmHg 86%
    08:00 +25°C° 0 mm 0 mps 721 mmHg 75%
    09:00 +28°C° 0 mm 0 mps 722 mmHg 65%
    10:00 +31°C° 0 mm 1 mps 722 mmHg 60%
    11:00 +32°C° 0 mm 1 mps 721 mmHg 55%
    12:00 +33°C° 0 mm 1 mps 721 mmHg 50%
    13:00 +33°C° 0.3 mm 1 mps 721 mmHg 55%
    14:00 +33°C° 0.3 mm 1 mps 720 mmHg 60%
    15:00 +32°C° 0.3 mm 1 mps 720 mmHg 65%
    16:00 +30°C° 1.9 mm 1 mps 720 mmHg 75%
    17:00 +28°C° 1.9 mm 1 mps 720 mmHg 85%
    18:00 +24°C° 1.9 mm 0 mps 720 mmHg 95%
    19:00 +24°C° 1.5 mm 0 mps 720 mmHg 95%
    20:00 +23°C° 1.5 mm 0 mps 721 mmHg 96%
    21:00 +23°C° 1.5 mm 0 mps 721 mmHg 96%
    22:00 +22°C° 0.2 mm 0 mps 721 mmHg 96%
    23:00 +22°C° 0.2 mm 0 mps 721 mmHg 96%

    22 July, Monday

    Time Temperature Precipitation Wind Pressure Humidity
    00:00 +22°C° 0.2 mm 0 mps 721 mmHg 96%
    01:00 +21°C° 0.1 mm 0 mps 720 mmHg 96%
    02:00 +23°C° 0.1 mm 1 mps 720 mmHg 97%
    03:00 +23°C° 0.1 mm 1 mps 720 mmHg 97%
    04:00 +23°C° 0 mm 1 mps 720 mmHg 97%
    05:00 +21°C° 0 mm 0 mps 720 mmHg 97%
    06:00 +21°C° 0 mm 0 mps 720 mmHg 97%
    07:00 +23°C° 0 mm 0 mps 721 mmHg 86%
    08:00 +26°C° 0 mm 0 mps 722 mmHg 75%
    09:00 +28°C° 0 mm 0 mps 722 mmHg 64%
    10:00 +30°C° 0 mm 0 mps 722 mmHg 58%
    11:00 +33°C° 0 mm 1 mps 722 mmHg 52%
    12:00 +34°C° 0 mm 1 mps 722 mmHg 45%
    13:00 +35°C° 0.1 mm 2 mps 721 mmHg 47%
    14:00 +35°C° 0.1 mm 2 mps 721 mmHg 48%
    15:00 +35°C° 0.1 mm 2 mps 720 mmHg 49%
    16:00 +31°C° 0.7 mm 2 mps 720 mmHg 64%
    17:00 +29°C° 0.7 mm 1 mps 720 mmHg 79%
    18:00 +26°C° 0.7 mm 1 mps 720 mmHg 94%
    19:00 +26°C° 0.8 mm 1 mps 721 mmHg 95%
    20:00 +23°C° 0.8 mm 0 mps 721 mmHg 96%
    21:00 +22°C° 0.8 mm 0 mps 722 mmHg 97%
    22:00 +22°C° 0 mm 0 mps 722 mmHg 97%
    23:00 +21°C° 0 mm 0 mps 722 mmHg 97%
    Show more